Flag Weather past 2 weeks in Trujillo, La Libertad, Peru

Now
68 °F

Sunny.


Feels Like: 68 °F
Forecast: N/A
Wind: 12 mph from Southeast

Location: Trujillo Airport

Current Time: Nov 27, 2014 at 5:26:12 PM

Latest Report: Nov 27, 2014 at 5:00 PM


Visibility: 10 mi

Pressure: 29.83 "Hg

Humidity: 78%

Dew point: 61 °F

Location of TrujilloLocation

Historic Weather in Trujillo — Graph

°F

Trujillo temperature yesterday

Maximum temperature yesterday: 70 °F (at 2:00 PM)
Minimum temperature yesterday: 63 °F (at 3:00 AM)
Average temperature yesterday: 66 °F

Past Weeks' High & Low Weather Summary

 TemperatureHumidityPressure
High72 °F (Nov 19, 1:00 PM)100% (Nov 17, 9:00 AM)30.01 "Hg (Nov 17, 9:00 AM)
Low46 °F (Nov 17, 9:00 AM)43% (Nov 19, 1:00 AM)29.80 "Hg (Nov 23, 5:00 PM)
Average66 °F84%29.94 "Hg
* Reported Nov 12 4:00 PM — Nov 27 4:00 PM, Trujillo, Weather by CustomWeather, © 2014

Note: Actual official high and low records may vary slightly from our data, if they occured in-between our weather recording intervals... More about our weather records

Advertising

Trujillo weather history for previous 24 hours

 ConditionsComfort  
Time TempWeatherWind HumidityBarometerVisibility
4:00 PM
Nov 27
68 °FClear.13 mph78%29.80 "Hg6 mi
3:00 PM68 °FClear.14 mph78%29.83 "Hg6 mi
2:00 PM70 °FSunny.14 mph73%29.86 "Hg10 mi
1:00 PM70 °FPassing clouds.13 mph73%29.89 "HgN/A
12:00 PM68 °FPassing clouds.15 mph78%29.89 "HgN/A
11:00 AM68 °FPassing clouds.14 mph78%29.92 "HgN/A
10:00 AM66 °FPassing clouds.14 mph83%29.95 "HgN/A
9:00 AM66 °FOvercast.7 mph83%29.95 "Hg5 mi
8:00 AM64 °FPassing clouds.6 mph88%29.95 "Hg5 mi
7:00 AM63 °FPassing clouds.No wind94%29.95 "Hg4 mi
6:00 AM61 °FFog.5 mph94%29.95 "Hg3 mi
5:00 AM63 °FFog.5 mph88%29.92 "Hg3 mi
4:00 AM63 °FPassing clouds.3 mph88%29.92 "Hg4 mi
3:00 AM63 °FClear.3 mph88%29.92 "Hg10 mi
2:00 AM63 °FPassing clouds.5 mph88%29.95 "HgN/A
1:00 AM63 °FClear.6 mph88%29.95 "Hg10 mi
12:00 AM64 °FClear.7 mph83%29.98 "Hg10 mi
11:00 PM
Nov 26
64 °FPassing clouds.8 mph83%29.98 "HgN/A
10:00 PM64 °FOvercast.7 mph83%29.98 "HgN/A
9:00 PM64 °FPassing clouds.9 mph83%29.98 "HgN/A
8:00 PM64 °FPassing clouds.10 mph88%29.95 "HgN/A
7:00 PM66 °FPassing clouds.8 mph83%29.92 "HgN/A
6:00 PM68 °FPassing clouds.10 mph73%29.89 "HgN/A
5:00 PM70 °FPassing clouds.5 mph73%29.89 "HgN/A
Weather by CustomWeather, © 2014

See weather overviewHow to use our weather pages